| time (UTC) | temp F | wind direction | speed knots | gust knots | rain 1hr in | rain 24hr in | rain mn in | humidity % | barometer mb |
| 20260906114527 | 69 | 121 | 0.0 | 2.6 | 0.00 | 0.00 | 0.00 | 94 | 1018.5 |
| 20260906113031 | 69 | 123 | 0.0 | 1.7 | 0.00 | 0.00 | 0.00 | 94 | 1018.7 |
| 20260906111533 | 69 | 123 | 0.0 | 3.5 | 0.00 | 0.00 | 0.00 | 94 | 1018.6 |
| 20260906110018 | 69 | 119 | 0.0 | 2.6 | 0.00 | 0.00 | 0.00 | 94 | 1018.5 |
| 20260906104526 | 69 | 119 | 0.0 | 2.6 | 0.00 | 0.00 | 0.00 | 94 | 1018.6 |
| 20260906103033 | 69 | 119 | 0.0 | 3.5 | 0.00 | 0.00 | 0.00 | 94 | 1018.7 |
| 20260906101507 | 68 | 94 | 0.0 | 0.0 | 0.00 | 0.00 | 0.00 | 94 | 1018.5 |
| 20260906100013 | 68 | 94 | 0.0 | 0.0 | 0.00 | 0.00 | 0.00 | 94 | 1018.5 |
| 20260906094518 | 69 | 94 | 0.0 | 0.0 | 0.00 | 0.00 | 0.00 | 93 | 1018.3 |
| 20260906093035 | 69 | 94 | 0.0 | 0.0 | 0.00 | 0.00 | 0.00 | 93 | 1018.1 |
| 20260906091528 | 69 | 94 | 0.0 | 3.5 | 0.00 | 0.00 | 0.00 | 93 | 1017.8 |
| 20260906090013 | 69 | 89 | 0.0 | 0.9 | 0.00 | 0.00 | 0.00 | 93 | 1017.4 |
| 20260906084517 | 69 | 86 | 0.0 | 3.5 | 0.00 | 0.00 | 0.00 | 93 | 1017.6 |
| 20260906083023 | 69 | 83 | 0.0 | 5.2 | 0.00 | 0.00 | 0.00 | 92 | 1017.4 |
| 20260906081533 | 70 | 82 | 0.0 | 6.1 | 0.00 | 0.00 | 0.00 | 92 | 1017.5 |
| 20260906080035 | 70 | 83 | 0.9 | 7.0 | 0.00 | 0.00 | 0.00 | 91 | 1017.6 |
| 20260906074534 | 70 | 107 | 0.0 | 5.2 | 0.00 | 0.00 | 0.00 | 91 | 1017.4 |
| 20260906073024 | 70 | 92 | 0.0 | 5.2 | 0.00 | 0.00 | 0.00 | 90 | 1017.5 |
| 20260906071532 | 71 | 89 | 0.9 | 3.5 | 0.00 | 0.00 | 0.00 | 90 | 1017.8 |
| 20260906070030 | 71 | 71 | 0.9 | 5.2 | 0.00 | 0.00 | 0.00 | 90 | 1017.7 |
| 20260906064536 | 71 | 74 | 0.0 | 5.2 | 0.00 | 0.00 | 0.00 | 90 | 1017.9 |
| 20260906063035 | 71 | 76 | 0.9 | 4.3 | 0.00 | 0.00 | 0.00 | 90 | 1017.9 |
| 20260906061523 | 71 | 82 | 0.0 | 3.5 | 0.00 | 0.00 | 0.00 | 90 | 1018.2 |
| 20260906060028 | 72 | 82 | 0.0 | 3.5 | 0.00 | 0.00 | 0.00 | 90 | 1018.1 |
| 20260906054533 | 72 | 82 | 0.0 | 6.1 | 0.00 | 0.00 | 0.00 | 90 | 1018.1 |
| 20260906053031 | 72 | 88 | 0.9 | 5.2 | 0.00 | 0.00 | 0.00 | 89 | 1017.9 |
| 20260906051516 | 72 | 91 | 0.0 | 3.5 | 0.00 | 0.00 | 0.00 | 89 | 1017.9 |
| 20260906050024 | 73 | 92 | 0.0 | 3.5 | 0.00 | 0.00 | 0.00 | 89 | 1017.6 |
| 20260906044533 | 73 | 89 | 0.0 | 2.6 | 0.00 | 0.00 | 0.00 | 88 | 1017.7 |
| 20260906043037 | 73 | 88 | 0.0 | 2.6 | 0.00 | 0.00 | 0.00 | 88 | 1017.6 |
| 20260906041541 | 74 | 80 | 0.9 | 3.5 | 0.00 | 0.00 | 0.00 | 88 | 1017.5 |
| 20260906040024 | 74 | 71 | 0.0 | 2.6 | 0.00 | 0.00 | 0.00 | 88 | 1017.6 |
| 20260906034529 | 74 | 72 | 0.0 | 4.3 | 0.00 | 0.00 | 0.00 | 88 | 1017.7 |
| 20260906033031 | 75 | 70 | 0.0 | 5.2 | 0.00 | 0.00 | 0.00 | 88 | 1017.8 |
| 20260906031532 | 75 | 72 | 3.5 | 7.8 | 0.00 | 0.00 | 0.00 | 87 | 1017.5 |
| 20260906030037 | 75 | 71 | 1.7 | 7.0 | 0.00 | 0.00 | 0.00 | 87 | 1017.3 |
| 20260906024523 | 76 | 69 | 0.9 | 3.5 | 0.00 | 0.00 | 0.00 | 86 | 1017.0 |
| 20260906023044 | 76 | 73 | 0.0 | 4.3 | 0.00 | 0.00 | 0.00 | 86 | 1016.9 |
| 20260906021532 | 76 | 77 | 0.9 | 4.3 | 0.00 | 0.00 | 0.00 | 86 | 1016.7 |
| 20260906020016 | 76 | 77 | 0.0 | 1.7 | 0.00 | 0.00 | 0.00 | 85 | 1016.6 |
| 20260906014532 | 76 | 78 | 0.9 | 3.5 | 0.00 | 0.00 | 0.00 | 85 | 1016.3 |
| 20260906013034 | 76 | 78 | 0.0 | 2.6 | 0.00 | 0.00 | 0.00 | 84 | 1016.1 |
| 20260906011506 | 77 | 80 | 0.0 | 2.6 | 0.00 | 0.00 | 0.00 | 83 | 1016.0 |
| 20260906010011 | 77 | 80 | 0.0 | 6.1 | 0.00 | 0.00 | 0.00 | 83 | 1015.9 |
| 20260906004533 | 77 | 88 | 0.0 | 3.5 | 0.00 | 0.00 | 0.00 | 83 | 1016.1 |
| 20260906003028 | 77 | 88 | 0.0 | 4.3 | 0.00 | 0.00 | 0.00 | 83 | 1016.0 |
| 20260906001535 | 78 | 95 | 1.7 | 5.2 | 0.00 | 0.00 | 0.00 | 82 | 1015.8 |
| 20260906000010 | 79 | 80 | 0.0 | 7.0 | 0.00 | 0.00 | 0.00 | 81 | 1015.7 |
| 20260905234535 | 79 | 71 | 0.0 | 7.0 | 0.00 | 0.00 | 0.00 | 81 | 1015.7 |
| 20260905233057 | 80 | 79 | 1.7 | 4.3 | 0.00 | 0.00 | 0.00 | 80 | 1015.6 |
| 20260905231549 | 80 | 79 | 0.9 | 7.8 | 0.00 | 0.00 | 0.00 | 79 | 1015.5 |
| 20260905230045 | 81 | 55 | 3.5 | 7.8 | 0.00 | 0.00 | 0.00 | 79 | 1015.5 |
| 20260905224518 | 81 | 56 | 4.3 | 8.7 | 0.00 | 0.00 | 0.00 | 79 | 1015.5 |
| 20260905223034 | 82 | 60 | 3.5 | 8.7 | 0.00 | 0.00 | 0.00 | 79 | 1015.2 |
| 20260905221533 | 82 | 47 | 2.6 | 8.7 | 0.00 | 0.00 | 0.00 | 78 | 1015.1 |
| 20260905220030 | 83 | 79 | 1.7 | 11.3 | 0.00 | 0.00 | 0.00 | 78 | 1014.8 |
| 20260905214531 | 84 | 57 | 6.1 | 13.0 | 0.00 | 0.00 | 0.00 | 77 | 1014.6 |
| 20260905213015 | 84 | 66 | 2.6 | 12.2 | 0.00 | 0.00 | 0.00 | 77 | 1014.8 |
| 20260905211537 | 84 | 56 | 4.3 | 10.4 | 0.00 | 0.00 | 0.00 | 78 | 1015.0 |
| 20260905210035 | 84 | 38 | 3.5 | 9.6 | 0.00 | 0.00 | 0.00 | 79 | 1015.1 |
| 20260905204531 | 84 | 70 | 2.6 | 9.6 | 0.00 | 0.00 | 0.00 | 79 | 1015.2 |
| 20260905203032 | 84 | 60 | 4.3 | 7.8 | 0.00 | 0.00 | 0.00 | 78 | 1015.5 |
| 20260905201525 | 84 | 71 | 4.3 | 11.3 | 0.00 | 0.00 | 0.00 | 79 | 1015.6 |
| 20260905200023 | 83 | 78 | 6.1 | 10.4 | 0.00 | 0.00 | 0.00 | 80 | 1015.8 |
| 20260905194537 | 82 | 51 | 5.2 | 10.4 | 0.00 | 0.00 | 0.00 | 82 | 1016.0 |
| 20260905193033 | 82 | 25 | 5.2 | 10.4 | 0.00 | 0.00 | 0.00 | 82 | 1016.0 |
| 20260905191533 | 82 | 49 | 3.5 | 11.3 | 0.00 | 0.00 | 0.00 | 82 | 1016.6 |
| 20260905190056 | 82 | 30 | 6.1 | 12.2 | 0.00 | 0.00 | 0.00 | 82 | 1016.8 |
| 20260905184537 | 83 | 24 | 5.2 | 12.2 | 0.00 | 0.00 | 0.00 | 82 | 1016.9 |
| 20260905183028 | 83 | 61 | 5.2 | 10.4 | 0.00 | 0.00 | 0.00 | 82 | 1017.0 |
| 20260905181531 | 83 | 43 | 6.1 | 13.0 | 0.00 | 0.00 | 0.00 | 81 | 1016.7 |
| 20260905180036 | 85 | 42 | 4.3 | 8.7 | 0.00 | 0.00 | 0.00 | 79 | 1016.9 |
| 20260905174544 | 85 | 49 | 2.6 | 5.2 | 0.00 | 0.00 | 0.00 | 79 | 1017.0 |
| 20260905173040 | 85 | 65 | 4.3 | 8.7 | 0.00 | 0.00 | 0.00 | 77 | 1016.8 |
| 20260905171531 | 85 | 55 | 1.7 | 7.0 | 0.00 | 0.00 | 0.00 | 78 | 1016.7 |
| 20260905170013 | 84 | 81 | 3.5 | 8.7 | 0.00 | 0.00 | 0.00 | 80 | 1016.6 |
| 20260905164535 | 84 | 42 | 3.5 | 7.0 | 0.00 | 0.00 | 0.00 | 80 | 1016.6 |
| 20260905163029 | 83 | 74 | 2.6 | 7.8 | 0.00 | 0.00 | 0.00 | 80 | 1016.7 |
| 20260905161534 | 83 | 71 | 2.6 | 7.8 | 0.00 | 0.00 | 0.00 | 82 | 1016.8 |
| 20260905160011 | 82 | 70 | 3.5 | 8.7 | 0.00 | 0.00 | 0.00 | 83 | 1016.7 |
| 20260905154533 | 82 | 59 | 4.3 | 8.7 | 0.00 | 0.00 | 0.00 | 81 | 1016.7 |
| 20260905153033 | 81 | 74 | 2.6 | 7.8 | 0.00 | 0.00 | 0.00 | 81 | 1016.8 |
| 20260905151537 | 80 | 38 | 1.7 | 6.1 | 0.00 | 0.00 | 0.00 | 82 | 1016.4 |
| 20260905150033 | 79 | 44 | 2.6 | 7.8 | 0.00 | 0.00 | 0.00 | 82 | 1016.3 |
| 20260905144513 | 79 | 52 | 0.9 | 4.3 | 0.00 | 0.00 | 0.00 | 82 | 1016.2 |
| 20260905143024 | 79 | 59 | 1.7 | 6.1 | 0.00 | 0.00 | 0.00 | 81 | 1016.0 |
| 20260905141528 | 79 | 78 | 1.7 | 4.3 | 0.00 | 0.00 | 0.00 | 83 | 1015.8 |
| 20260905140029 | 78 | 87 | 0.9 | 3.5 | 0.00 | 0.00 | 0.00 | 84 | 1015.9 |
| 20260905134533 | 76 | 103 | 0.0 | 0.0 | 0.00 | 0.00 | 0.00 | 88 | 1015.8 |
| 20260905133018 | 74 | 103 | 0.0 | 0.0 | 0.00 | 0.00 | 0.00 | 90 | 1015.6 |
| 20260905131541 | 73 | 103 | 0.0 | 0.0 | 0.00 | 0.00 | 0.00 | 91 | 1015.3 |
| 20260905130028 | 72 | 103 | 0.0 | 0.0 | 0.00 | 0.00 | 0.00 | 92 | 1015.3 |
| 20260905124539 | 71 | 103 | 0.0 | 0.0 | 0.00 | 0.00 | 0.00 | 92 | 1015.2 |
| 20260905123035 | 71 | 103 | 0.0 | 0.0 | 0.00 | 0.00 | 0.00 | 92 | 1015.0 |
| 20260905121524 | 71 | 103 | 0.0 | 0.0 | 0.00 | 0.00 | 0.00 | 93 | 1015.0 |
| 20260905120029 | 71 | 103 | 0.0 | 0.0 | 0.00 | 0.00 | 0.00 | 93 | 1014.8 |